PBO Station Position Time Series. Reference Frame : NAM14
Format Version,1.1.1
4-character ID,P048
Station name,BozemanRR_MT2007
Begin Date, 2007-04-24
End Date, 2023-06-26
Release Date, 2023-06-27
Reference position, 45.6530440239 North Latitude, -111.2042109779 East Longitude, 1491.97289 meters elevation,
Date, North (mm), East (mm), Vertical (mm), North Std. Deviation (mm), East Std. Deviation (mm),              Vertical Std. Deviation (mm), Quality,
2007-04-24,0.00, 0.00, 0.00, 2.19, 1.58, 7.04, repro,
2007-04-25,-0.74, -0.29, 8.08, 2.21, 1.58, 7.08, repro,
2007-04-26,-0.79, 0.50, 1.12, 2.19, 1.55, 7.01, repro,
2007-04-27,1.05, -0.91, 7.09, 2.19, 1.55, 6.99, repro,
2007-04-28,-2.15, -1.25, 7.97, 2.17, 1.53, 6.91, repro,
2007-04-29,-0.10, -1.91, 10.21, 2.20, 1.56, 7.04, repro,
2007-04-30,0.28, -1.02, 10.14, 2.20, 1.56, 7.10, repro,
2007-05-01,1.26, 0.19, 2.07, 2.18, 1.55, 7.01, repro,
2007-05-02,-0.11, -0.41, 6.01, 2.29, 1.60, 7.33, repro,
2007-05-03,-1.57, -0.75, 7.33, 2.24, 1.57, 7.15, repro,
2007-05-04,0.06, -0.31, 6.77, 2.18, 1.53, 6.94, repro,
2007-05-05,0.38, -1.47, 2.01, 2.23, 1.58, 7.22, repro,
2007-05-06,-0.37, -1.78, -1.87, 2.18, 1.55, 6.99, repro,
2007-05-07,-0.16, -1.65, 4.63, 2.20, 1.55, 7.04, repro,
2007-05-08,-1.56, -0.59, 6.34, 2.19, 1.55, 7.05, repro,
2007-05-09,0.69, 0.31, 4.32, 2.20, 1.55, 7.02, repro,
2007-05-10,-1.21, -1.45, 5.54, 2.29, 1.62, 7.36, repro,
2007-05-11,-0.64, 0.12, -3.00, 2.28, 1.63, 7.38, repro,
2007-05-12,-0.96, -1.21, 2.27, 2.19, 1.55, 7.02, repro,
2007-05-13,-1.63, -0.91, 1.33, 2.24, 1.58, 7.18, repro,
2007-05-14,-0.98, -1.10, 3.04, 2.21, 1.57, 7.07, repro,
2007-05-15,0.61, -1.09, 2.22, 2.19, 1.53, 6.90, repro,
2007-05-16,-0.20, -1.72, -3.87, 2.18, 1.54, 6.96, repro,
2007-05-17,0.20, -1.01, -0.40, 2.20, 1.59, 7.12, repro,
2007-05-18,0.16, -1.21, 2.12, 2.22, 1.60, 7.16, repro,
2007-05-19,-1.98, -1.87, 3.31, 2.21, 1.55, 7.02, repro,
2007-05-20,1.83, -0.76, 9.37, 2.21, 1.54, 7.02, repro,
2007-05-21,-0.16, -2.88, 2.61, 2.19, 1.54, 6.88, repro,
2007-05-22,-0.17, -1.34, -1.65, 2.18, 1.55, 6.97, repro,
2007-05-23,1.07, -0.85, 2.40, 2.17, 1.54, 6.90, repro,
2007-05-24,-0.46, -1.26, 0.53, 2.25, 1.58, 7.11, repro,
2007-05-25,0.57, -0.96, 3.53, 2.24, 1.58, 7.09, repro,
2007-05-26,1.27, 0.31, -4.56, 2.22, 1.57, 7.03, repro,
2007-05-27,-0.36, -1.16, 2.85, 2.18, 1.55, 6.93, repro,
2007-05-28,0.57, 0.04, 5.73, 2.22, 1.62, 7.18, repro,
2007-05-29,0.32, 0.39, -3.80, 2.18, 1.55, 6.91, repro,
2007-05-30,0.05, -1.37, -0.13, 2.22, 1.55, 6.97, repro,
2007-05-31,0.59, -0.42, 3.24, 2.27, 1.63, 7.16, repro,
2007-06-01,0.41, -1.04, 2.28, 2.16, 1.54, 6.87, repro,
2007-06-02,-0.84, -0.97, -0.35, 2.16, 1.55, 6.92, repro,
2007-06-03,-0.68, -1.48, 1.01, 2.17, 1.56, 6.95, repro,
2007-06-04,0.24, -0.64, 2.95, 2.16, 1.55, 6.90, repro,
2007-06-05,0.26, -0.17, 7.29, 2.22, 1.57, 7.10, repro,
2007-06-06,-0.20, -1.12, 13.35, 2.16, 1.54, 6.90, repro,
2007-06-07,-0.64, -2.28, 7.71, 2.14, 1.53, 6.82, repro,
2007-06-08,-0.21, -0.94, 4.27, 2.16, 1.54, 6.91, repro,
2007-06-09,-0.12, -0.31, 0.53, 2.19, 1.58, 7.09, repro,
2007-06-10,-0.75, -1.25, 1.94, 2.15, 1.54, 6.89, repro,
2007-06-11,0.76, -1.69, -2.99, 2.18, 1.57, 7.02, repro,
2007-06-12,0.09, -2.00, 2.95, 2.17, 1.56, 7.01, repro,
2007-06-13,-1.34, -1.33, -0.35, 2.19, 1.60, 7.06, repro,
2007-06-14,-0.50, -2.08, -2.65, 2.19, 1.60, 7.08, repro,
2007-06-15,0.74, -1.64, 3.81, 2.16, 1.55, 6.92, repro,
2007-06-16,-0.43, 0.00, 4.79, 2.23, 1.56, 7.01, repro,
2007-06-17,-0.26, 1.45, 9.78, 2.18, 1.56, 7.02, repro,
2007-06-18,0.83, -1.40, 6.33, 2.15, 1.54, 6.86, repro,
2007-06-19,0.31, -2.13, 0.73, 2.16, 1.55, 6.93, repro,
2007-06-20,0.92, -0.38, -0.64, 2.24, 1.63, 7.21, repro,
2007-06-21,-0.66, -0.30, 2.04, 2.16, 1.55, 6.91, repro,
2007-06-22,-1.88, -1.27, 4.71, 2.15, 1.55, 6.90, repro,
2007-06-23,-0.23, 0.25, 1.76, 2.15, 1.55, 6.88, repro,
2007-06-24,-0.70, -1.08, 3.50, 2.18, 1.58, 7.07, repro,
2007-06-25,0.85, -0.45, 0.01, 2.16, 1.55, 6.91, repro,
2007-06-26,1.01, -0.85, -4.38, 2.15, 1.54, 6.87, repro,
2007-06-27,-0.51, 0.25, -6.08, 2.15, 1.55, 6.93, repro,
2007-06-28,-0.25, -0.29, -0.50, 2.15, 1.54, 6.88, repro,
2007-06-29,-0.89, -0.76, 1.40, 2.15, 1.55, 6.91, repro,
2007-06-30,-0.41, -1.41, 2.22, 2.15, 1.54, 6.91, repro,
2007-07-01,-0.83, -0.10, 4.88, 2.15, 1.54, 6.87, repro,
2007-07-02,-1.04, -0.33, 4.13, 2.15, 1.54, 6.88, repro,
2007-07-03,-0.96, -0.48, 3.47, 2.17, 1.56, 7.02, repro,
2007-07-04,-0.47, -0.09, 2.17, 2.15, 1.55, 6.93, repro,
2007-07-05,-0.08, -0.37, 0.85, 2.16, 1.55, 6.94, repro,
2007-07-06,2.78, -0.37, -0.96, 2.20, 1.59, 6.97, repro,
2007-07-07,-0.70, -1.71, 15.51, 2.21, 1.61, 7.15, repro,
2007-07-08,-0.76, -0.38, 9.62, 2.16, 1.55, 6.93, repro,
2007-07-09,-0.46, -0.47, 6.42, 2.15, 1.55, 6.88, repro,
2007-07-10,-0.47, 0.00, 4.31, 2.15, 1.55, 6.90, repro,
2007-07-11,-1.02, 0.19, 8.63, 2.15, 1.55, 6.88, repro,
2007-07-12,0.87, 1.04, 4.95, 2.15, 1.55, 6.87, repro,
2007-07-13,-1.49, -0.52, 1.91, 2.15, 1.55, 6.87, repro,
2007-07-14,-2.98, -0.70, 9.22, 2.22, 1.65, 7.30, repro,
2007-07-15,-0.89, 0.71, 9.57, 2.19, 1.61, 7.08, repro,
2007-07-16,-0.86, -0.44, 2.09, 2.15, 1.55, 6.89, repro,
2007-07-17,1.51, 1.47, 7.74, 2.16, 1.55, 6.91, repro,
2007-07-18,-0.80, -0.36, 6.55, 2.22, 1.59, 7.08, repro,
2007-07-19,-0.37, 0.97, 11.31, 2.24, 1.59, 7.13, repro,
2007-07-20,0.12, -1.41, 12.03, 2.20, 1.61, 7.11, repro,
2007-07-21,-0.06, -1.66, 14.81, 2.17, 1.60, 7.00, repro,
2007-07-22,-0.16, 1.38, 7.72, 2.19, 1.60, 7.03, repro,
2007-07-23,0.48, -0.11, 15.53, 2.37, 1.80, 7.92, repro,
2007-07-24,0.03, 1.48, 13.84, 2.22, 1.62, 7.16, repro,
2007-07-25,1.37, -0.51, 4.40, 2.20, 1.60, 7.07, repro,
2007-07-26,2.06, -0.16, 5.10, 2.17, 1.55, 6.92, repro,
2007-07-27,-1.01, 1.39, 6.35, 2.18, 1.61, 7.05, repro,
2007-07-28,-0.07, 2.39, 9.88, 2.23, 1.62, 7.12, repro,
2007-07-29,-0.52, -0.64, 18.60, 2.21, 1.62, 7.17, repro,
2007-07-30,-1.04, -1.82, 7.68, 2.27, 1.66, 7.33, repro,
2007-07-31,-2.27, 1.08, 15.69, 2.22, 1.58, 7.11, repro,
2007-08-01,-0.01, 0.63, 13.10, 2.13, 1.54, 6.85, repro,
2007-08-02,0.50, -0.03, 14.70, 2.13, 1.55, 6.86, repro,
2007-08-03,-0.06, -0.56, 9.95, 2.16, 1.56, 6.94, repro,
2007-08-04,1.57, -1.06, 13.31, 2.18, 1.57, 7.03, repro,
2007-08-05,-0.87, -0.44, 19.62, 2.17, 1.56, 7.00, repro,
2007-08-06,-1.26, 0.66, 20.81, 2.56, 1.79, 7.99, repro,
2007-08-07,-0.46, 2.00, 13.33, 2.19, 1.59, 7.07, repro,
2007-08-08,0.35, 0.02, 15.08, 2.16, 1.55, 6.89, repro,
2007-08-09,0.74, -0.14, 15.56, 2.20, 1.62, 7.13, repro,
2007-08-10,1.17, -0.41, 11.64, 2.15, 1.56, 6.92, repro,
2007-08-11,1.17, -0.61, 16.33, 2.14, 1.53, 6.81, repro,
2007-08-12,0.53, 0.75, 13.82, 2.12, 1.53, 6.79, repro,
2007-08-13,-1.36, 0.22, 13.50, 2.15, 1.55, 6.86, repro,
2007-08-14,-1.09, 0.46, 13.45, 2.31, 1.64, 7.41, repro,
2007-08-15,-0.92, 0.09, 15.57, 2.31, 1.63, 7.36, repro,
2007-08-16,1.28, -0.42, 17.50, 2.26, 1.58, 7.16, repro,
2007-08-17,-0.23, 1.05, 8.76, 2.26, 1.59, 7.17, repro,
2007-08-18,0.84, 0.10, 16.41, 2.44, 1.77, 7.90, repro,
2007-08-19,1.08, -0.33, 23.02, 2.35, 1.73, 7.67, repro,
2007-08-20,-0.95, -1.04, 12.67, 2.24, 1.60, 7.18, repro,
2007-08-21,-0.89, -1.04, 15.18, 2.26, 1.59, 7.14, repro,
2007-08-22,0.36, 0.43, 14.48, 2.26, 1.59, 7.07, repro,
2007-08-23,-0.13, 0.44, 17.68, 2.20, 1.55, 6.89, repro,
2007-08-24,-1.18, 0.57, 16.65, 2.32, 1.64, 7.22, repro,
2007-08-25,-0.92, 0.57, 14.65, 2.23, 1.62, 7.09, repro,
2007-08-26,-1.03, 1.91, 13.45, 2.29, 1.66, 7.32, repro,
2007-08-27,0.99, 0.37, 14.39, 2.30, 1.66, 7.29, repro,
2007-08-28,0.27, 1.01, 12.91, 2.24, 1.61, 7.08, repro,
2007-08-29,-0.47, 0.95, 11.28, 2.23, 1.62, 7.11, repro,
2007-08-30,-1.13, 0.15, 9.78, 2.24, 1.63, 7.17, repro,
2007-08-31,0.31, 0.32, 15.04, 2.23, 1.62, 7.07, repro,
2007-09-01,-1.15, 1.40, 8.13, 2.26, 1.63, 7.14, repro,
2007-09-02,-0.26, -0.12, 13.93, 2.27, 1.62, 7.12, repro,
2007-09-03,0.51, -1.07, 10.68, 2.24, 1.61, 7.06, repro,
2007-09-04,0.11, 0.14, 15.85, 2.25, 1.63, 7.19, repro,
2007-09-05,-0.47, 0.97, 19.13, 2.23, 1.61, 7.05, repro,
2007-09-06,-1.42, 0.63, 19.06, 2.26, 1.64, 7.17, repro,
2007-09-07,0.05, 0.24, 13.23, 2.28, 1.62, 7.14, repro,
2007-09-08,0.78, 0.32, 9.67, 2.30, 1.65, 7.27, repro,
2007-09-09,-0.00, 0.21, 10.62, 2.33, 1.71, 7.52, repro,
2007-09-10,-0.11, 0.74, 9.48, 2.24, 1.63, 7.11, repro,
2007-09-11,1.03, 0.29, 9.17, 2.25, 1.63, 7.12, repro,
2007-09-12,-0.28, -0.35, 12.20, 2.27, 1.63, 7.14, repro,
2007-09-13,0.41, 0.44, 15.47, 2.30, 1.66, 7.28, repro,
2007-09-14,-0.51, 0.80, 9.98, 2.28, 1.65, 7.24, repro,
2007-09-15,0.20, -0.58, 10.33, 2.33, 1.66, 7.38, repro,
2007-09-16,-0.16, 0.61, 13.36, 2.24, 1.62, 7.10, repro,
2007-09-17,-0.10, -0.11, 13.69, 2.35, 1.73, 7.57, repro,
2007-09-18,-0.97, 1.16, 13.36, 2.22, 1.62, 7.05, repro,
2007-09-19,-0.67, 0.08, 13.93, 2.17, 1.55, 6.84, repro,
2007-09-20,-0.15, 0.34, 13.73, 2.17, 1.56, 6.92, repro,
2007-09-21,0.24, -0.70, 15.33, 2.27, 1.63, 7.22, repro,
2007-09-22,0.34, 1.15, 13.43, 2.21, 1.56, 6.94, repro,
2007-09-23,-1.66, -0.94, 13.03, 2.32, 1.66, 7.32, repro,
2007-09-24,-0.35, 0.92, 11.74, 2.33, 1.61, 7.24, repro,
2007-09-25,-0.23, 0.57, 8.87, 2.24, 1.60, 7.12, repro,
2007-09-26,-0.44, -1.02, 12.87, 2.29, 1.58, 7.08, repro,
2007-09-27,-1.05, 0.51, 14.29, 2.23, 1.60, 7.09, repro,
2007-09-28,-1.78, 0.03, 22.31, 2.17, 1.59, 7.05, repro,
2007-09-29,-0.14, -0.43, 18.79, 2.20, 1.59, 7.00, repro,
2007-09-30,0.61, -0.20, 16.31, 2.38, 1.68, 7.36, repro,
2007-10-01,0.82, 0.40, 19.92, 2.27, 1.64, 7.20, repro,
2007-10-02,1.05, 0.20, 12.34, 2.30, 1.70, 7.47, repro,
2007-10-03,-1.09, 0.37, 24.64, 2.21, 1.62, 7.11, repro,
2007-10-04,0.66, 0.35, 14.00, 2.30, 1.67, 7.34, repro,
2007-10-05,0.89, 0.35, 17.86, 2.27, 1.64, 7.19, repro,
2007-10-06,-1.92, 0.43, 19.12, 2.27, 1.63, 7.17, repro,
2007-10-07,0.23, 0.59, 10.99, 2.32, 1.65, 7.30, repro,
2007-10-08,0.24, 0.74, 12.75, 2.56, 1.77, 7.89, repro,
2007-10-09,-0.53, 0.68, 12.08, 2.57, 1.85, 7.90, repro,
2007-10-10,1.56, 2.28, 11.49, 2.42, 1.70, 7.53, repro,
2007-10-11,-0.16, -0.28, 16.86, 2.35, 1.71, 7.36, repro,
2007-10-12,0.46, 0.44, 15.71, 2.29, 1.66, 7.31, repro,
2007-10-13,0.33, 0.16, 20.04, 2.21, 1.60, 7.05, repro,
2007-10-14,0.20, 0.45, 12.72, 2.19, 1.59, 6.98, repro,
2007-10-15,0.39, 1.01, 14.30, 2.25, 1.64, 7.16, repro,
2007-10-16,-0.23, 0.79, 18.10, 2.18, 1.59, 6.95, repro,
2007-10-17,0.23, 0.26, 22.50, 2.22, 1.64, 7.20, repro,
2007-10-18,0.24, -0.38, 20.05, 2.29, 1.65, 7.26, repro,
2007-10-19,0.79, 0.71, 24.48, 2.21, 1.60, 7.06, repro,
2007-10-20,-1.55, 0.23, 18.48, 2.21, 1.62, 7.12, repro,
2007-10-21,-0.19, -0.19, 11.20, 2.19, 1.59, 6.99, repro,
2007-10-22,-0.91, 0.88, 7.70, 2.17, 1.59, 6.99, repro,
2007-10-23,-0.53, 0.29, 7.46, 2.29, 1.66, 7.29, repro,
2007-10-24,-0.40, 0.64, 8.17, 2.31, 1.69, 7.44, repro,
2007-10-25,-0.43, 0.69, 10.98, 2.19, 1.58, 6.97, repro,
2007-10-26,1.01, 1.05, 5.31, 2.22, 1.61, 7.12, repro,
2007-10-27,0.30, 0.25, 1.52, 2.20, 1.61, 7.08, repro,
2007-10-28,-0.62, 1.05, 4.18, 2.18, 1.58, 6.99, repro,
2007-10-29,-1.26, 0.28, 7.92, 2.20, 1.59, 7.03, repro,
2007-10-30,0.22, -0.29, 7.99, 2.21, 1.58, 7.05, repro,
2007-10-31,-0.19, 0.78, 6.54, 2.20, 1.57, 6.97, repro,
2007-11-01,0.65, 0.87, 11.43, 2.15, 1.54, 6.82, repro,
2007-11-02,0.12, 0.74, 8.84, 2.16, 1.56, 6.90, repro,
2007-11-03,0.20, -1.95, 2.97, 2.16, 1.56, 6.87, repro,
2007-11-04,-1.11, -3.27, 7.77, 2.16, 1.55, 6.87, repro,
2007-11-05,0.95, 0.13, 8.29, 2.16, 1.55, 6.89, repro,
2007-11-06,-1.22, 0.84, 5.79, 2.22, 1.63, 7.31, repro,
2007-11-07,0.17, 0.70, 9.33, 2.15, 1.57, 6.92, repro,
2007-11-08,0.22, 0.01, 13.74, 2.20, 1.60, 6.99, repro,
2007-11-09,0.05, -0.32, 7.85, 2.21, 1.59, 7.01, repro,
2007-11-10,0.33, 1.26, 16.27, 2.15, 1.55, 6.84, repro,
2007-11-11,-0.35, 0.74, 17.46, 2.16, 1.55, 6.85, repro,
2007-11-12,-0.05, 0.51, 10.62, 2.15, 1.54, 6.82, repro,
2007-11-13,-1.47, -0.95, 20.04, 2.16, 1.56, 6.88, repro,
2007-11-14,-0.47, -0.39, 8.32, 2.18, 1.57, 6.92, repro,
2007-11-15,0.09, 0.41, 10.52, 2.18, 1.57, 6.93, repro,
2007-11-16,-0.31, 0.13, 21.71, 2.16, 1.55, 6.86, repro,
2007-11-17,-0.29, 0.74, 9.82, 2.16, 1.56, 6.86, repro,
2007-11-18,1.04, 0.39, 10.87, 2.17, 1.56, 6.90, repro,
2007-11-19,-0.22, 0.16, 11.35, 2.18, 1.59, 6.99, repro,
2007-11-20,-1.19, -0.03, 11.53, 2.24, 1.65, 7.20, repro,
2007-11-21,-1.22, -0.73, 4.47, 2.22, 1.63, 7.09, repro,
2007-11-22,-0.29, 0.10, 4.34, 2.22, 1.62, 7.08, repro,
2007-11-23,-0.45, -0.40, 6.45, 2.30, 1.70, 7.41, repro,
2007-11-24,-0.95, 0.14, 13.79, 2.25, 1.66, 7.23, repro,
2007-11-25,-1.57, 0.21, 10.29, 2.25, 1.67, 7.19, repro,
2007-11-26,-0.78, 0.68, 7.04, 2.35, 1.71, 7.61, repro,
2007-11-27,-1.08, 0.20, 11.49, 2.25, 1.67, 7.25, repro,
2007-11-28,-0.54, -0.79, 7.80, 2.25, 1.66, 7.21, repro,
2007-11-29,0.10, -0.76, 7.12, 2.33, 1.71, 7.46, repro,
2007-11-30,0.84, -0.24, 6.19, 2.25, 1.68, 7.23, repro,
2007-12-01,0.16, -0.12, 11.96, 2.42, 1.78, 7.87, repro,
2007-12-02,-0.97, 0.14, 11.14, 2.42, 1.77, 7.86, repro,
2007-12-03,0.32, 0.33, 3.44, 2.56, 1.84, 8.24, repro,
2007-12-04,-1.75, 0.35, 5.10, 2.45, 1.87, 8.14, repro,
2007-12-05,-0.50, -2.10, 11.71, 2.54, 1.90, 8.22, repro,
2007-12-06,-1.46, -0.72, 12.67, 2.52, 1.85, 8.04, repro,
2007-12-07,0.70, 0.41, 12.10, 2.54, 1.83, 8.07, repro,
2007-12-08,0.39, 0.51, 10.43, 2.31, 1.71, 7.42, repro,
2007-12-09,-0.15, -0.38, 6.20, 2.67, 2.04, 8.77, repro,
2007-12-10,-0.17, -0.72, 5.28, 2.35, 1.75, 7.65, repro,
2007-12-11,-0.29, 0.21, 5.05, 2.36, 1.74, 7.62, repro,
2007-12-12,-0.14, -1.83, 5.99, 2.40, 1.71, 7.58, repro,
2007-12-13,1.07, -1.17, 3.34, 2.33, 1.67, 7.29, repro,
2007-12-14,-0.90, -0.31, 7.88, 2.22, 1.58, 6.99, repro,
2007-12-15,-1.58, -0.48, 12.56, 2.26, 1.64, 7.13, repro,
2007-12-16,0.10, -2.29, 9.85, 2.23, 1.58, 6.99, repro,
2007-12-17,-0.40, -0.41, 11.11, 2.27, 1.65, 7.16, repro,
2007-12-18,-0.62, -0.23, 15.78, 2.27, 1.64, 7.22, repro,
2007-12-19,-1.35, -1.76, 14.30, 2.31, 1.64, 7.30, repro,
2007-12-20,-1.69, 0.00, 19.91, 2.21, 1.58, 6.99, repro,
2007-12-21,0.70, -1.34, 5.10, 2.37, 1.68, 7.46, repro,
2007-12-22,-0.26, -1.04, 4.44, 2.36, 1.68, 7.52, repro,
2007-12-23,-0.74, 0.17, 6.50, 2.31, 1.66, 7.34, repro,
2007-12-24,-0.35, 0.24, 12.80, 2.31, 1.66, 7.25, repro,
2007-12-25,-0.92, -0.90, 10.83, 2.28, 1.66, 7.24, repro,
2007-12-26,-1.31, -0.06, 11.15, 2.23, 1.59, 7.03, repro,
2007-12-27,-0.69, -0.88, 11.71, 2.32, 1.70, 7.39, repro,
2007-12-28,-1.13, -0.31, 11.72, 2.29, 1.65, 7.32, repro,
2007-12-29,-0.99, -0.76, 9.58, 2.27, 1.61, 7.16, repro,
2007-12-30,-0.12, -0.98, 10.33, 2.28, 1.63, 7.19, repro,
2007-12-31,-0.75, -0.43, 8.98, 2.21, 1.55, 6.91, repro,
2008-01-01,-0.05, -0.51, -4.35, 2.20, 1.56, 6.90, repro,
2008-01-02,-0.77, 0.02, -3.87, 2.21, 1.57, 6.95, repro,
2008-01-03,-2.62, 0.30, 3.16, 2.19, 1.54, 6.84, repro,
2008-01-04,-3.43, -0.14, 15.31, 2.19, 1.56, 6.87, repro,
2008-01-05,0.34, -0.17, 24.55, 2.17, 1.55, 6.83, repro,
2008-01-06,-0.26, -1.22, 14.63, 2.16, 1.53, 6.79, repro,
2008-01-07,-0.07, -0.49, 16.19, 2.17, 1.55, 6.86, repro,
2008-01-08,-0.83, -0.82, 10.64, 2.23, 1.55, 6.94, repro,
2008-01-09,0.10, -0.79, 11.83, 2.25, 1.56, 6.98, repro,
2008-01-10,-1.38, -1.31, 12.65, 2.16, 1.54, 6.79, repro,
2008-01-11,-1.90, -0.31, 9.97, 2.15, 1.54, 6.77, repro,
2008-01-12,-1.33, -0.84, 8.20, 2.14, 1.53, 6.75, repro,
2008-01-13,0.16, -0.15, 3.29, 2.15, 1.54, 6.79, repro,
2008-01-14,-1.01, -0.19, 4.60, 2.22, 1.57, 6.99, repro,
2008-01-15,-0.57, -2.11, 9.40, 2.16, 1.56, 6.88, repro,
2008-01-16,0.32, -1.18, 4.54, 2.22, 1.58, 7.05, repro,
2008-01-17,-0.92, -1.31, 5.66, 2.20, 1.56, 6.96, repro,
2008-01-18,0.40, -0.77, 3.69, 2.17, 1.58, 7.02, repro,
2008-01-19,-0.03, -0.74, 2.20, 2.23, 1.58, 7.09, repro,
2008-01-20,0.30, 0.32, 4.82, 2.19, 1.57, 6.94, repro,
2008-01-21,-0.09, 0.00, 3.12, 2.16, 1.56, 6.87, repro,
2008-01-22,-0.50, -0.65, 2.95, 2.21, 1.58, 7.08, repro,
2008-01-23,-0.57, -0.62, 1.96, 2.16, 1.56, 6.89, repro,
2008-01-24,-0.84, -0.20, 8.34, 2.19, 1.57, 6.96, repro,
2008-01-25,-0.75, -0.35, 8.94, 2.24, 1.59, 7.13, repro,
2008-01-26,-2.20, -0.97, 6.53, 2.22, 1.58, 7.07, repro,
2008-01-27,2.97, 1.01, 17.10, 2.19, 1.57, 7.02, repro,
2008-01-28,0.16, -0.24, 30.16, 2.22, 1.58, 7.09, repro,
2008-01-29,0.45, -1.27, 15.31, 2.35, 1.69, 7.53, repro,
2008-01-30,-0.32, -0.39, 13.83, 2.36, 1.65, 7.43, repro,
2008-01-31,-0.85, 0.28, 6.73, 2.18, 1.56, 6.94, repro,
2008-02-01,0.68, 0.51, 4.57, 2.22, 1.57, 7.02, repro,
2008-02-02,0.78, 0.23, 5.36, 2.21, 1.57, 7.03, repro,
2008-02-03,0.60, -0.04, 11.95, 2.20, 1.56, 7.03, repro,
2008-02-04,0.63, -0.46, 9.71, 2.16, 1.55, 6.94, repro,
2008-02-05,0.42, 0.05, 9.53, 2.30, 1.64, 7.30, repro,
2008-02-06,-0.45, -0.78, 10.59, 2.27, 1.63, 7.24, repro,
2008-02-07,-1.49, -0.45, 18.58, 2.22, 1.58, 7.12, repro,
2008-02-08,0.30, 0.53, 7.61, 2.14, 1.54, 6.87, repro,
2008-02-09,0.19, 0.20, 8.02, 2.14, 1.54, 6.82, repro,
2008-02-10,-1.66, -0.57, 1.44, 2.16, 1.55, 6.91, repro,
2008-02-11,-1.35, -0.20, 10.81, 2.22, 1.57, 7.01, repro,
2008-02-12,-0.04, -0.82, 1.05, 2.16, 1.55, 6.92, repro,
2008-02-13,1.07, 0.35, 12.88, 2.15, 1.54, 6.85, repro,
2008-02-14,0.16, -0.29, 3.86, 2.14, 1.53, 6.80, repro,
2008-02-15,-0.69, -0.09, 4.18, 2.20, 1.58, 7.02, repro,
2008-02-16,-1.72, -1.07, 5.72, 2.17, 1.55, 6.89, repro,
2008-02-17,-0.36, -0.75, 4.50, 2.16, 1.55, 6.91, repro,
2008-02-18,-0.73, -0.08, 5.09, 2.16, 1.55, 6.89, repro,
2008-02-19,0.19, -0.17, 5.94, 2.15, 1.54, 6.82, repro,
2008-02-20,-1.10, 0.37, 6.61, 2.15, 1.53, 6.79, repro,
2008-02-21,-0.95, -0.02, 11.19, 2.16, 1.54, 6.81, repro,
2008-02-22,-0.24, -0.22, 11.54, 2.17, 1.55, 6.88, repro,
2008-02-23,-1.43, -0.24, 10.76, 2.17, 1.56, 6.94, repro,
2008-02-24,-0.12, 0.39, 12.04, 2.15, 1.54, 6.83, repro,
2008-02-25,-0.93, -0.46, 5.58, 2.15, 1.54, 6.82, repro,
2008-02-26,-0.55, -0.44, -1.29, 2.17, 1.56, 6.90, repro,
2008-02-27,-0.58, -1.13, 1.72, 2.18, 1.55, 6.89, repro,
2008-02-28,-0.69, -0.73, 4.19, 2.20, 1.60, 7.08, repro,
2008-02-29,-1.30, -0.82, 3.59, 2.17, 1.56, 6.92, repro,
2008-03-01,-0.62, -0.48, 9.70, 2.18, 1.58, 7.00, repro,
2008-03-02,-0.61, -1.19, 3.23, 2.18, 1.58, 7.02, repro,
2008-03-03,0.41, -0.39, 3.06, 2.17, 1.55, 6.88, repro,
2008-03-04,-1.36, -1.02, 3.45, 2.17, 1.55, 6.90, repro,
2008-03-05,-0.54, -0.57, 2.06, 2.25, 1.67, 7.29, repro,
2008-03-06,-0.97, -1.28, 0.12, 2.22, 1.58, 7.05, repro,
2008-03-07,-0.82, -0.43, 0.94, 2.15, 1.54, 6.83, repro,
2008-03-08,-0.59, -0.69, 7.81, 2.33, 1.71, 7.60, repro,
2008-03-09,-0.79, 0.24, 4.71, 2.19, 1.58, 7.02, repro,
2008-03-10,-0.39, -0.39, 0.81, 2.17, 1.56, 6.91, repro,
2008-03-11,-0.90, -0.22, 2.48, 2.16, 1.54, 6.86, repro,
2008-03-12,-0.22, -0.37, 0.75, 2.18, 1.57, 7.01, repro,
2008-03-13,-1.13, -0.97, 14.49, 2.25, 1.61, 7.17, repro,
2008-03-14,-1.46, -0.03, 11.07, 2.18, 1.58, 7.05, repro,
2008-03-15,-1.17, -0.07, 7.77, 2.21, 1.59, 7.12, repro,
2008-03-16,-0.04, -0.34, 6.38, 2.25, 1.63, 7.27, repro,
2008-03-17,-1.57, -0.56, 7.97, 2.31, 1.70, 7.60, repro,
2008-03-18,0.41, -0.49, 10.11, 2.21, 1.61, 7.18, repro,
2008-03-19,-2.74, 0.52, 6.68, 2.18, 1.58, 7.00, repro,
2008-03-20,-1.50, -0.26, 7.69, 2.20, 1.60, 7.10, repro,
2008-03-21,-0.52, -0.28, -0.53, 2.19, 1.59, 7.06, repro,
2008-03-22,-0.81, -0.46, -2.60, 2.22, 1.63, 7.24, repro,
2008-03-23,-0.96, 0.50, -1.78, 2.19, 1.57, 7.01, repro,
2008-03-24,-2.83, -0.94, 10.75, 2.20, 1.58, 7.05, repro,
2008-03-25,-1.26, -0.16, 9.05, 2.22, 1.61, 7.03, repro,
2008-03-26,-0.23, 0.46, 4.50, 2.23, 1.63, 7.08, repro,
2008-03-27,-0.97, -0.57, 3.29, 2.21, 1.62, 7.00, repro,
2008-03-28,0.45, 0.03, 3.72, 2.17, 1.56, 6.80, repro,
2008-03-29,-0.40, 0.59, 12.39, 2.18, 1.54, 6.85, repro,
2008-03-30,-0.03, -0.33, 3.94, 2.17, 1.54, 6.86, repro,
2008-03-31,-0.33, -0.48, 7.17, 2.17, 1.54, 6.82, repro,
2008-04-01,-1.54, -0.43, 4.37, 2.16, 1.54, 6.81, repro,
2008-04-02,-1.22, -0.26, 7.79, 2.21, 1.55, 6.93, repro,
2008-04-03,-0.47, -1.31, 4.84, 2.19, 1.54, 6.89, repro,
2008-04-04,-1.10, 0.05, 5.42, 2.17, 1.54, 6.87, repro,
2008-04-05,-0.82, -1.34, 9.56, 2.18, 1.54, 6.86, repro,
2008-04-06,-1.58, -0.83, 6.48, 2.17, 1.54, 6.84, repro,
2008-04-07,-1.07, -0.19, 8.53, 2.15, 1.53, 6.77, repro,
2008-04-08,-0.85, 0.04, 4.75, 2.17, 1.54, 6.86, repro,
2008-04-09,-0.35, -0.78, 6.67, 2.20, 1.55, 6.94, repro,
2008-04-10,-1.00, -1.38, 7.44, 2.18, 1.54, 6.88, repro,
2008-04-11,-1.31, -1.07, -2.01, 2.18, 1.54, 6.85, repro,
2008-04-12,-1.43, -1.35, -1.78, 2.16, 1.53, 6.80, repro,
2008-04-13,-2.24, -0.42, -0.02, 2.17, 1.53, 6.85, repro,
2008-04-14,-2.47, -1.25, 7.88, 2.18, 1.54, 6.90, repro,
2008-04-15,-1.51, 0.36, 17.41, 2.23, 1.59, 7.05, repro,
2008-04-16,-1.70, -1.56, 11.55, 2.22, 1.59, 7.01, repro,
2008-04-17,-1.01, -1.19, 2.19, 2.18, 1.53, 6.82, repro,
2008-04-18,-1.02, -2.56, 2.09, 2.17, 1.53, 6.84, repro,
2008-04-19,-0.67, -0.51, 5.68, 2.18, 1.54, 6.88, repro,
2008-04-20,-0.44, -1.03, 8.14, 2.20, 1.53, 6.89, repro,
2008-04-21,-0.51, -1.23, 2.54, 2.21, 1.55, 6.93, repro,
2008-04-22,-2.38, -0.04, 8.11, 2.20, 1.53, 6.88, repro,
2008-04-23,-0.12, 0.04, 5.29, 2.25, 1.59, 7.12, repro,
2008-04-24,-1.39, -0.42, 0.03, 2.21, 1.56, 7.03, repro,
2008-04-25,-0.43, -0.40, 2.71, 2.21, 1.54, 6.97, repro,
2008-04-26,-0.15, -0.62, -3.70, 2.34, 1.62, 7.25, repro,
2008-04-27,-1.07, -0.42, 1.07, 2.29, 1.56, 6.98, repro,
2008-04-28,-0.25, -0.72, -1.29, 2.29, 1.57, 6.97, repro,
2008-04-29,-0.93, -1.44, 9.96, 2.34, 1.59, 7.20, repro,
2008-04-30,-0.99, -1.11, 9.02, 2.23, 1.57, 7.03, repro,
2008-05-01,-0.48, -1.30, 6.53, 2.26, 1.57, 7.09, repro,
2008-05-02,-0.62, -1.00, 2.87, 2.26, 1.57, 7.04, repro,
2008-05-03,-0.76, -0.43, 1.98, 2.26, 1.58, 7.08, repro,
2008-05-04,-1.30, -1.17, 6.02, 2.20, 1.55, 6.89, repro,
2008-05-05,-1.54, -1.68, 0.65, 2.25, 1.58, 7.08, repro,
2008-05-06,-0.73, -1.90, 2.94, 2.26, 1.57, 7.09, repro,
2008-05-07,-1.30, -1.11, 6.84, 2.23, 1.54, 6.92, repro,
2008-05-08,-0.89, -1.13, 4.32, 2.22, 1.54, 6.91, repro,
2008-05-09,-1.02, -0.92, 6.46, 2.22, 1.55, 6.90, repro,
2008-05-10,-1.00, -1.38, 3.58, 2.22, 1.55, 6.94, repro,
2008-05-11,-0.76, -1.55, 7.53, 2.21, 1.54, 6.92, repro,
2008-05-12,-0.51, -0.94, 8.69, 2.26, 1.57, 7.03, repro,
2008-05-13,-1.41, -0.81, 5.98, 2.21, 1.53, 6.87, repro,
2008-05-14,-1.07, -0.92, 8.89, 2.22, 1.54, 6.88, repro,
2008-05-15,-2.48, -1.32, 0.03, 2.21, 1.54, 6.86, repro,
2008-05-16,-0.55, -1.72, -6.06, 2.21, 1.55, 6.97, repro,
2008-05-17,-1.35, 0.04, -2.50, 2.21, 1.54, 6.91, repro,
2008-05-18,-1.50, -2.31, 9.66, 2.26, 1.57, 7.05, repro,
2008-05-19,-0.05, -2.27, 11.69, 2.21, 1.54, 6.91, repro,
2008-05-20,0.03, -0.54, 7.29, 2.21, 1.54, 6.91, repro,
2008-05-21,-1.46, -2.60, 13.05, 2.21, 1.55, 7.00, repro,
2008-05-22,-0.12, -0.85, 7.38, 2.22, 1.57, 7.09, repro,
2008-05-23,0.57, -0.61, 4.41, 2.21, 1.56, 7.01, repro,
2008-05-24,-1.18, -1.12, 1.83, 2.19, 1.54, 6.90, repro,
2008-05-25,-1.03, -0.97, 5.74, 2.19, 1.53, 6.88, repro,
2008-05-26,-1.24, 0.20, 6.37, 2.22, 1.56, 7.06, repro,
2008-05-27,-1.33, -0.13, -0.15, 2.20, 1.54, 6.93, repro,
2008-05-28,-1.02, -0.30, -3.46, 2.20, 1.54, 6.93, repro,
2008-05-29,-0.10, -1.47, -0.64, 2.24, 1.59, 7.09, repro,
2008-05-30,-3.22, -0.01, 4.37, 2.20, 1.54, 6.95, repro,
2008-05-31,-1.24, -0.71, 2.17, 2.20, 1.54, 6.91, repro,
2008-06-01,-1.18, -1.18, 0.17, 2.19, 1.54, 6.94, repro,
2008-06-02,-2.18, -0.64, 1.82, 2.55, 1.73, 7.89, repro,
2008-06-03,-0.72, -0.79, 8.61, 2.29, 1.62, 7.31, repro,
2008-06-04,-1.77, -0.21, 9.37, 2.20, 1.54, 6.93, repro,
2008-06-05,-1.97, -0.70, 7.34, 2.19, 1.54, 6.91, repro,
2008-06-06,-0.31, -1.33, 5.47, 2.22, 1.58, 7.07, repro,
2008-06-07,-3.03, -1.35, 8.13, 2.27, 1.61, 7.13, repro,
2008-06-08,-2.12, -1.35, 1.42, 2.25, 1.59, 7.07, repro,
2008-06-09,-3.05, -1.24, 8.14, 2.25, 1.58, 7.02, repro,
2008-06-10,-0.34, 0.51, 2.79, 2.24, 1.59, 7.05, repro,
2008-06-11,-1.15, -0.57, 5.91, 2.20, 1.55, 6.92, repro,
2008-06-12,-2.42, -1.26, 0.27, 2.22, 1.56, 7.03, repro,
2008-06-13,-1.46, -0.02, 6.03, 2.21, 1.54, 6.93, repro,
2008-06-14,-2.48, 0.10, -1.43, 2.26, 1.58, 7.10, repro,
2008-06-15,-2.33, 0.17, 3.28, 2.27, 1.57, 7.06, repro,
2008-06-16,-2.36, -0.58, 0.96, 2.21, 1.56, 6.97, repro,
2008-06-17,-1.66, 0.25, 1.06, 2.21, 1.56, 7.00, repro,